DW8016 Weather Reports


time (UTC)temp
F
wind
direction
speed
knots
gust
knots
rain 1hr
in
rain 24hr
in
rain mn
in
humidity
%
barometer
mb
20230208165108 62 300 4.3 11.3 0.00 0.00 0.00 49 1023.4
20230208164035 63 346 3.5 9.6 0.00 0.00 0.00 50 1023.2
20230208163001 63 344 4.3 7.8 0.00 0.00 0.00 49 1023.3
20230208161925 63 301 2.6 7.0 0.00 0.00 0.00 52 1023.4
20230208160919 63 328 0.9 7.8 0.00 0.00 0.00 54 1023.3
20230208155931 63 286 3.5 7.8 0.00 0.00 0.00 55 1023.3
20230208153748 62 346 2.6 5.2 0.00 0.00 0.00 56 1023.2
20230208152718 61 319 0.9 5.2 0.00 0.00 0.00 60 1023.3
20230208151718 60 322 1.7 5.2 0.00 0.00 0.00 61 1023.2
20230208145514 57 315 0.9 5.2 0.00 0.00 0.00 66 1022.9
20230208144505 55 324 0.0 3.5 0.00 0.00 0.00 66 1023.0
20230208143459 54 330 0.0 1.7 0.00 0.00 0.00 66 1022.9
20230208142438 52 219 0.0 1.7 0.00 0.00 0.00 68 1022.9
20230208141433 50 192 0.0 0.0 0.00 0.00 0.00 70 1023.0
20230208140452 49 192 0.0 0.0 0.00 0.00 0.00 74 1022.7
20230208135500 48 192 0.0 0.0 0.00 0.00 0.00 76 1022.6
20230208133315 46 192 0.0 0.0 0.00 0.00 0.00 80 1022.3
20230208132328 45 192 0.0 0.9 0.00 0.00 0.00 81 1022.2
20230208130227 44 192 0.0 0.0 0.00 0.00 0.00 81 1021.8
20230208124054 43 192 0.0 0.0 0.00 0.00 0.00 82 1021.6
20230208123104 43 192 0.0 0.0 0.00 0.00 0.00 82 1021.2
20230208122035 43 192 0.0 0.9 0.00 0.00 0.00 82 1021.5
20230208121033 43 192 0.0 0.0 0.00 0.00 0.00 81 1021.3
20230208115957 44 192 0.0 0.0 0.00 0.00 0.00 81 1021.1
20230208113836 44 192 0.9 1.7 0.00 0.00 0.00 80 1021.1
20230208112826 44 192 0.0 0.0 0.00 0.00 0.00 79 1020.5
20230208111840 44 192 0.0 0.0 0.00 0.00 0.00 79 1020.5
20230208105659 45 192 0.0 0.0 0.00 0.00 0.00 79 1020.3
20230208104647 45 192 0.0 0.0 0.00 0.00 0.00 78 1019.9
20230208103630 45 192 0.0 0.0 0.00 0.00 0.00 78 1020.0
20230208102620 46 192 0.0 0.0 0.00 0.00 0.00 77 1019.7
20230208100404 46 192 0.0 0.0 0.00 0.00 0.00 76 1019.7
20230208095349 46 192 0.0 0.0 0.00 0.00 0.00 76 1019.5
20230208094333 46 192 0.0 0.0 0.00 0.00 0.00 76 1019.0
20230208093347 46 192 0.0 0.0 0.00 0.00 0.00 75 1019.0
20230208092329 46 192 0.0 0.0 0.00 0.00 0.00 75 1018.9
20230208090213 46 192 0.0 0.9 0.00 0.00 0.00 76 1019.1
20230208084024 46 192 0.0 0.0 0.00 0.00 0.00 75 1018.9
20230208083041 46 192 0.0 0.0 0.00 0.00 0.00 75 1018.7
20230208082031 46 192 0.0 0.0 0.00 0.00 0.00 76 1018.8
20230208081046 46 192 0.0 0.0 0.00 0.00 0.00 76 1018.9
20230208080021 45 192 0.0 0.0 0.00 0.00 0.00 75 1018.7
20230208074956 45 192 0.0 0.0 0.00 0.00 0.00 75 1018.8
20230208074000 45 192 0.0 0.0 0.00 0.00 0.00 75 1019.0
20230208072950 45 192 0.0 0.0 0.00 0.00 0.00 75 1019.1
20230208072001 45 192 0.0 0.0 0.00 0.00 0.00 75 1019.1
20230208070941 46 192 0.0 0.0 0.00 0.00 0.00 75 1019.3
20230208065922 46 192 0.0 0.0 0.00 0.00 0.00 74 1019.5
20230208064911 46 192 0.0 0.0 0.00 0.00 0.00 73 1019.3
20230208063918 46 192 0.0 0.0 0.00 0.00 0.00 73 1019.4
20230208062851 46 192 0.9 1.7 0.00 0.00 0.00 73 1019.5
20230208061817 46 191 0.0 1.7 0.00 0.00 0.00 74 1019.4
20230208060750 46 191 0.0 0.0 0.00 0.00 0.00 73 1019.0
20230208055732 46 191 0.0 0.0 0.00 0.00 0.00 73 1019.1
20230208054704 47 191 0.0 0.0 0.00 0.00 0.00 73 1019.0
20230208053658 47 191 0.0 0.0 0.00 0.00 0.00 72 1019.0
20230208052710 47 191 0.0 0.0 0.00 0.00 0.00 71 1019.2
20230208050529 48 191 0.0 0.0 0.00 0.00 0.00 70 1019.1
20230208045516 48 191 0.0 0.0 0.00 0.00 0.00 68 1019.1
20230208044507 49 191 0.0 0.9 0.00 0.00 0.00 66 1019.3
20230208043433 49 191 0.0 0.0 0.00 0.00 0.00 65 1019.1
20230208042438 49 191 0.0 0.0 0.00 0.00 0.00 65 1019.1
20230208041435 49 191 0.0 0.0 0.00 0.00 0.00 65 1019.1
20230208040453 49 191 0.9 3.5 0.00 0.00 0.00 65 1019.2
20230208034318 49 207 0.9 3.5 0.00 0.00 0.00 66 1019.1
20230208033301 48 207 0.0 4.3 0.00 0.00 0.00 66 1019.4
20230208032252 48 213 0.0 4.3 0.00 0.00 0.00 67 1019.5
20230208031247 48 180 0.0 1.7 0.00 0.00 0.00 67 1019.6
20230208030238 48 175 0.0 2.6 0.00 0.00 0.00 66 1019.7
20230208025210 48 175 0.0 2.6 0.00 0.00 0.00 67 1019.6
20230208024200 48 175 0.0 0.0 0.00 0.00 0.00 66 1020.0
20230208023150 48 175 0.0 0.0 0.00 0.00 0.00 65 1020.0
20230208022132 49 175 0.9 3.5 0.00 0.00 0.00 64 1020.1
20230208021143 49 184 0.9 2.6 0.00 0.00 0.00 64 1020.1
20230208014941 49 184 0.9 4.3 0.00 0.00 0.00 64 1020.0
20230208013943 49 174 1.7 6.1 0.00 0.00 0.00 64 1020.0
20230208012938 48 161 1.7 6.1 0.00 0.00 0.00 65 1019.9
20230208011903 48 178 0.9 2.6 0.00 0.00 0.00 66 1020.1
20230208010852 47 166 0.9 2.6 0.00 0.00 0.00 67 1020.2
20230208005821 46 157 0.0 1.7 0.00 0.00 0.00 68 1020.4
20230208002447 48 157 0.0 0.0 0.00 0.00 0.00 65 1021.0
20230208001509 48 157 0.0 0.0 0.00 0.00 0.00 65 1020.9
20230208000531 48 157 0.0 0.0 0.00 0.00 0.00 66 1020.9
20230207235520 48 157 0.0 0.0 0.00 0.00 0.00 65 1020.9
20230207234524 48 157 0.0 0.0 0.00 0.00 0.00 64 1020.9
20230207233529 49 157 0.0 0.0 0.00 0.00 0.00 63 1020.6
20230207231339 49 150 0.0 0.0 0.00 0.00 0.00 62 1020.9
20230207230320 49 148 0.0 2.6 0.00 0.00 0.00 62 1021.1
20230207225310 49 163 0.0 0.9 0.00 0.00 0.00 62 1020.9
20230207224249 49 162 0.0 2.6 0.00 0.00 0.00 61 1020.9
20230207223255 49 162 0.0 0.0 0.00 0.00 0.00 60 1021.5
20230207221147 49 162 0.9 3.5 0.00 0.00 0.00 60 1021.1
20230207220149 50 175 0.9 4.3 0.00 0.00 0.00 60 1021.4
20230207215206 50 175 0.9 4.3 0.00 0.00 0.00 59 1021.4
20230207214156 50 132 0.9 3.5 0.00 0.00 0.00 59 1021.2
20230207213142 50 173 1.7 5.2 0.00 0.00 0.00 59 1021.2
20230207212144 50 166 0.9 7.8 0.00 0.00 0.00 58 1021.3
20230207211112 51 201 2.6 7.8 0.00 0.00 0.00 57 1021.5
20230207210050 51 197 1.7 7.8 0.00 0.00 0.00 56 1021.5
20230207205021 51 158 1.7 6.1 0.00 0.00 0.00 57 1021.8
20230207204013 50 159 1.7 12.2 0.00 0.00 0.00 57 1021.6
20230207203006 50 179 3.5 12.2 0.00 0.00 0.00 56 1021.8
20230207201948 50 182 3.5 11.3 0.00 0.00 0.00 56 1022.0
20230207200942 50 195 3.5 11.3 0.00 0.00 0.00 56 1022.0
20230207195913 50 178 2.6 8.7 0.00 0.00 0.00 57 1022.0
20230207194914 50 196 3.5 12.2 0.00 0.00 0.00 57 1022.3
20230207192757 49 181 3.5 11.3 0.00 0.00 0.00 58 1022.5
20230207191810 49 190 3.5 9.6 0.00 0.00 0.00 59 1023.0
20230207190805 48 211 4.3 10.4 0.00 0.00 0.00 59 1023.1
20230207185747 48 190 3.5 10.4 0.00 0.00 0.00 59 1023.4
20230207184806 48 165 3.5 8.7 0.00 0.00 0.00 60 1023.3
20230207182711 47 198 3.5 8.7 0.00 0.00 0.00 61 1023.9
20230207181724 47 169 2.6 8.7 0.00 0.00 0.00 62 1024.1
20230207175524 47 236 2.6 7.0 0.00 0.00 0.00 61 1024.8
20230207174543 46 167 1.7 6.1 0.00 0.00 0.00 62 1024.9
20230207173514 46 150 2.6 6.1 0.00 0.00 0.00 64 1025.2
20230207172501 45 212 1.7 6.1 0.00 0.00 0.00 65 1025.2
20230207171454 45 144 2.6 7.8 0.00 0.00 0.00 66 1025.6
20230207170517 44 152 1.7 8.7 0.00 0.00 0.00 66 1025.4
20230207165535 44 180 2.6 8.7 0.00 0.00 0.00 67 1026.0